Regional Weather Roundup
Issued by NWS

Home | Current Version | Previous Version | Text Only | Print | Product List | Glossary Off
Versions: 1 2 3 4 5 6 7 8 9 10 11 12 13 14 15 16 17 18 19 20 21 22 23 24 25 26 27 28 29 30 31 32 33 34 35 36 37 38 39 40 41 42 43 44 45 46 47 48 49 50

000
ASUS43 KLMK 022202
RWRKY
KENTUCKY REGIONAL WEATHER ROUNDUP
NATIONAL WEATHER SERVICE LOUISVILLE KY
600 PM EDT WED SEP 02 2015

NOTE "FAIR" INDICATES FEW OR NO CLOUDS BELOW 12,000 FEET
WITH NO SIGNIFICANT WEATHER AND/OR OBSTRUCTIONS TO VISIBILITY.

KYZ001>023-026-027-061>063-070>075-022300-
WESTERN AND SOUTH CENTRAL KENTUCKY

CITY           SKY/WX    TMP DP  RH WIND       PRES   REMARKS
PADUCAH        MOSUNNY   92  67  43 CALM      30.00F HX  95
HENDERSON      SUNNY     90  66  45 NE3       29.99F HX  92
OWENSBORO      SUNNY     91  67  45 CALM      30.02F HX  94
HOPKINSVILLE   MOSUNNY   89  67  47 NE5       30.01F HX  92
BOWLING GREEN  SUNNY     89  64  43 NE5       30.02F HX  90
GLASGOW        MOSUNNY   90  61  38 CALM      30.03F HX  90
$$

KYZ024-025-028>034-038-045-046-053-022300-
NORTH CENTRAL KENTUCKY

CITY           SKY/WX    TMP DP  RH WIND       PRES   REMARKS
LOUISVILLE/SDF MOSUNNY   92  65  40 W7        30.01F HX  94
LOUISVILLE/LOU SUNNY     90  64  42 NW3       30.02F HX  91
FORT KNOX      PTSUNNY   88  66  48 SW5       30.02F HX  90
$$

KYZ035>037-039>044-047>052-055>060-089>105-022300-
NORTHEAST KENTUCKY

CITY           SKY/WX    TMP DP  RH WIND       PRES   REMARKS
LEXINGTON      SUNNY     89  65  44 W7        30.05F HX  91
COVINGTON      MOSUNNY   89  67  47 W10       30.02F HX  92
FRANKFORT      SUNNY     88  64  44 NW3       30.03F
$$

KYZ054-064>069-076>088-106>120-022300-
SOUTHEAST KENTUCKY

CITY           SKY/WX    TMP DP  RH WIND       PRES   REMARKS
JACKSON        SUNNY     86  63  45 VRB3      30.06F
LONDON         SUNNY     87  62  43 CALM      30.06S
SOMERSET       NOT AVBL
MIDDLESBORO    MOSUNNY   87  65  49 N3        30.05F
MONTICELLO     PTCLDY    91  66  43 NW7       30.07F HX  93
$$



USA.gov is the U.S. government's official web portal to all federal, state and local government web resources and services.